CW9999 Weather Reports


Display with metric or nautical units.
time (UTC)temp
F
wind
direction
speed
MPH
gust
MPH
rain 1hr
in
rain 24hr
in
rain mn
in
humidity
%
barometer
mb
20190322154637 56 328 0.0 5.0 0.00 0.00 0.00 46 1027.7
20190322153149 57 352 4.0 6.0 0.00 0.00 0.00 46 1027.8
20190322151635 57 304 1.0 6.0 0.00 0.00 0.00 45 1027.9
20190322150244 57 328 2.0 4.0 0.00 0.00 0.00 46 1028.0
20190322144623 57 333 3.0 6.0 0.00 0.00 0.00 46 1028.2
20190322143129 56 7 4.0 9.0 0.00 0.00 0.00 47 1028.5
20190322141636 57 309 3.0 10.0 0.00 0.00 0.00 47 1028.7
20190322140151 57 338 4.0 9.0 0.00 0.00 0.00 46 1028.8
20190322134642 57 38 4.0 9.0 0.00 0.00 0.00 46 1028.8
20190322133116 57 286 4.0 9.0 0.00 0.00 0.00 43 1029.0
20190322131534 56 11 3.0 9.0 0.00 0.00 0.00 43 1029.1
20190322130128 56 338 4.0 10.0 0.00 0.00 0.00 44 1029.3
20190322124558 56 265 4.0 10.0 0.00 0.00 0.00 42 1029.5
20190322123037 56 24 3.0 11.0 0.00 0.00 0.00 44 1029.7
20190322121543 56 309 3.0 12.0 0.00 0.00 0.00 42 1029.9
20190322120027 56 28 2.0 10.0 0.00 0.00 0.00 42 1030.1
20190322114530 56 9 6.0 10.0 0.00 0.00 0.00 43 1030.2
20190322113040 55 266 0.0 9.0 0.00 0.00 0.00 43 1030.2
20190322111523 55 7 2.0 9.0 0.00 0.00 0.00 42 1030.4
20190322110022 55 14 4.0 9.0 0.00 0.00 0.00 42 1030.4
20190322104518 54 286 2.0 8.0 0.00 0.00 0.00 45 1030.5
20190322103011 53 277 3.0 9.0 0.00 0.00 0.00 46 1030.7
20190322101514 52 277 2.0 8.0 0.00 0.00 0.00 49 1030.8
20190322100006 52 257 4.0 10.0 0.00 0.00 0.00 50 1030.8
20190322094651 52 277 2.0 9.0 0.00 0.00 0.00 50 1030.8
20190322093135 51 266 5.0 9.0 0.00 0.00 0.00 50 1030.9
20190322091641 49 259 6.0 10.0 0.00 0.00 0.00 52 1031.0
20190322090142 49 274 6.0 10.0 0.00 0.00 0.00 52 1031.0
20190322084611 49 289 3.0 11.0 0.00 0.00 0.00 54 1030.9
20190322083212 48 263 8.0 11.0 0.00 0.00 0.00 53 1030.9
20190322081607 48 248 4.0 14.0 0.00 0.00 0.00 54 1030.9
20190322080127 47 179 6.0 12.0 0.00 0.00 0.00 53 1030.8
20190322074633 47 196 5.0 13.0 0.00 0.00 0.00 54 1030.8
20190322073107 46 219 5.0 15.0 0.00 0.00 0.00 54 1030.8
20190322071547 46 200 8.0 14.0 0.00 0.00 0.00 53 1030.7
20190322070049 46 252 7.0 12.0 0.00 0.00 0.00 53 1030.7
20190322064553 46 228 7.0 13.0 0.00 0.00 0.00 54 1030.7
20190322063021 45 225 5.0 13.0 0.00 0.00 0.00 54 1030.6
20190322061532 45 230 6.0 12.0 0.00 0.00 0.00 54 1030.5
20190322060042 45 220 4.0 12.0 0.00 0.00 0.00 54 1030.3
20190322054518 45 231 6.0 13.0 0.00 0.00 0.00 54 1030.2
20190322053037 45 230 5.0 10.0 0.00 0.00 0.00 54 1030.1
20190322051539 45 238 5.0 12.0 0.00 0.00 0.00 54 1030.1
20190322050010 45 227 4.0 10.0 0.00 0.00 0.00 55 1030.1
20190322044507 45 235 4.0 11.0 0.00 0.00 0.00 55 1030.0
20190322043015 45 252 5.0 12.0 0.00 0.00 0.00 56 1030.0
20190322041509 45 223 5.0 12.0 0.00 0.00 0.00 56 1030.0
20190322040001 45 248 6.0 12.0 0.00 0.00 0.00 57 1030.0
20190322034631 45 248 4.0 11.0 0.00 0.00 0.00 56 1030.0
20190322033216 45 229 6.0 12.0 0.00 0.00 0.00 56 1030.2
20190322031705 45 244 6.0 12.0 0.00 0.00 0.00 55 1030.1
20190322030213 45 206 6.0 11.0 0.00 0.00 0.00 55 1030.2
20190322024631 45 282 4.0 11.0 0.00 0.00 0.00 56 1030.2
20190322023154 45 248 6.0 11.0 0.00 0.00 0.00 55 1030.2
20190322021601 45 209 5.0 12.0 0.00 0.00 0.00 54 1030.2
20190322020123 45 221 4.0 10.0 0.00 0.00 0.00 54 1030.2
20190322014643 45 207 6.0 12.0 0.00 0.00 0.00 55 1030.4
20190322013154 45 220 6.0 12.0 0.00 0.00 0.00 55 1030.4
20190322011622 45 206 3.0 12.0 0.00 0.00 0.00 54 1030.5
20190322010127 46 253 5.0 10.0 0.00 0.00 0.00 53 1030.6
20190322004636 46 217 6.0 14.0 0.00 0.00 0.00 51 1030.7
20190322003135 46 249 5.0 11.0 0.00 0.00 0.00 54 1030.9
20190322001647 46 252 6.0 10.0 0.00 0.00 0.00 55 1030.9
20190322000052 46 248 5.0 11.0 0.00 0.00 0.00 56 1031.0
20190321234634 46 232 5.0 10.0 0.00 0.00 0.00 55 1031.0
20190321233037 47 234 5.0 11.0 0.00 0.00 0.00 53 1031.0
20190321231549 47 223 4.0 10.0 0.00 0.00 0.00 54 1030.9
20190321230050 47 244 5.0 10.0 0.00 0.00 0.00 51 1030.9
20190321224539 47 237 5.0 9.0 0.00 0.00 0.00 51 1031.0
20190321223049 47 215 4.0 7.0 0.00 0.00 0.00 50 1031.1
20190321221542 47 240 5.0 8.0 0.00 0.00 0.00 49 1031.1
20190321220018 47 223 3.0 7.0 0.00 0.00 0.00 49 1031.2
20190321214520 46 204 2.0 4.0 0.00 0.00 0.00 49 1031.1
20190321213037 47 207 2.0 5.0 0.00 0.00 0.00 49 1031.1
20190321211526 47 200 2.0 5.0 0.00 0.00 0.00 49 1031.2
20190321210017 46 199 2.0 4.0 0.00 0.00 0.00 50 1031.1
20190321204550 47 207 2.0 4.0 0.00 0.00 0.00 49 1031.1
20190321203041 46 213 2.0 4.0 0.00 0.00 0.00 50 1031.0
20190321201517 46 202 2.0 3.0 0.00 0.00 0.00 50 1031.0
20190321200015 46 198 2.0 3.0 0.00 0.00 0.00 50 1030.9
20190321194531 46 200 2.0 4.0 0.00 0.00 0.00 51 1030.9
20190321193012 46 204 2.0 3.0 0.00 0.00 0.00 55 1030.9
20190321191531 46 212 1.0 3.0 0.00 0.00 0.00 55 1031.0
20190321190014 46 192 1.0 3.0 0.00 0.00 0.00 54 1030.9
20190321184511 46 179 1.0 2.0 0.00 0.00 0.00 52 1030.9
20190321183033 47 175 0.0 2.0 0.00 0.00 0.00 51 1030.8
20190321181507 47 137 1.0 2.0 0.00 0.00 0.00 48 1030.6
20190321180015 47 132 1.0 2.0 0.00 0.00 0.00 51 1030.5
20190321174514 47 89 0.0 2.0 0.00 0.00 0.00 53 1030.5
20190321173012 48 73 0.0 1.0 0.00 0.00 0.00 52 1030.4
20190321171514 49 73 0.0 1.0 0.00 0.00 0.00 50 1030.4
20190321170008 50 34 0.0 0.0 0.00 0.00 0.00 47 1030.4
20190321164509 51 34 0.0 0.0 0.00 0.00 0.00 47 1030.4
20190321163020 50 32 0.0 4.0 0.00 0.00 0.00 46 1030.4
20190321161502 51 39 1.0 4.0 0.00 0.00 0.00 45 1030.4